Time,TemperatureF,DewpointF,PressureIn,WindDirection,WindDirectionDegrees,WindSpeedMPH,WindSpeedGustMPH,Humidity,HourlyPrecipIn,Conditions,Clouds,dailyrainin,SoftwareType,DateUTC
2013-01-01 00:03:00,47.5,36.7,30.24,North,-999,0.0,0.0,66,0.00,,,-99.99,FreeWX-Wi 1.01,2013-01-01 08:03:00,
2013-01-01 00:13:00,47.3,36.5,30.24,North,-999,0.0,0.0,66,0.00,,,-99.99,FreeWX-Wi 1.01,2013-01-01 08:13:00,
2013-01-01 00:23:00,47.3,36.9,30.24,North,-999,0.0,0.0,67,0.00,,,-99.99,FreeWX-Wi 1.01,2013-01-01 08:23:00,
2013-01-01 00:33:00,47.3,36.9,30.24,North,-999,0.0,0.0,67,0.00,,,-99.99,FreeWX-Wi 1.01,2013-01-01 08:33:00,
2013-01-01 00:43:00,47.1,36.7,30.24,North,-999,0.0,0.0,67,0.00,,,-99.99,FreeWX-Wi 1.01,2013-01-01 08:43:00,
2013-01-01 00:53:00,47.1,37.0,30.24,North,-999,0.0,0.0,68,0.00,,,-99.99,FreeWX-Wi 1.01,2013-01-01 08:53:00,
2013-01-01 01:03:00,47.1,37.0,30.24,North,-999,0.0,0.0,68,0.00,,,-99.99,FreeWX-Wi 1.01,2013-01-01 09:03:00,
2013-01-01 01:13:00,47.1,37.4,30.24,North,-999,0.0,0.0,69,0.00,,,-99.99,FreeWX-Wi 1.01,2013-01-01 09:13:00,
2013-01-01 01:23:00,47.3,37.6,30.24,North,-999,0.0,0.0,69,0.00,,,-99.99,FreeWX-Wi 1.01,2013-01-01 09:23:00,
2013-01-01 01:34:00,47.5,38.1,30.24,North,-999,0.0,0.0,70,0.00,,,-99.99,FreeWX-Wi 1.01,2013-01-01 09:34:00,
2013-01-01 01:44:00,47.5,38.1,30.24,North,-999,0.0,0.0,70,0.00,,,-99.99,FreeWX-Wi 1.01,2013-01-01 09:44:00,
2013-01-01 01:54:00,47.3,37.9,30.21,North,-999,0.0,0.0,70,0.00,,,-99.99,FreeWX-Wi 1.01,2013-01-01 09:54:00,
2013-01-01 02:04:00,47.3,38.3,30.21,North,-999,0.0,0.0,71,0.00,,,-99.99,FreeWX-Wi 1.01,2013-01-01 10:04:00,
2013-01-01 02:14:00,47.1,38.1,30.24,North,-999,0.0,0.0,71,0.00,,,-99.99,FreeWX-Wi 1.01,2013-01-01 10:14:00,
2013-01-01 02:24:00,47.1,38.1,30.24,North,-999,0.0,0.0,71,0.00,,,-99.99,FreeWX-Wi 1.01,2013-01-01 10:24:00,
2013-01-01 02:34:00,46.9,38.5,30.24,North,-999,0.0,0.0,72,0.00,,,-99.99,FreeWX-Wi 1.01,2013-01-01 10:34:00,
2013-01-01 02:44:00,46.9,38.5,30.24,North,-999,0.0,0.0,72,0.00,,,-99.99,FreeWX-Wi 1.01,2013-01-01 10:44:00,
2013-01-01 02:54:00,46.8,38.3,30.24,North,-999,0.0,0.0,72,0.00,,,-99.99,FreeWX-Wi 1.01,2013-01-01 10:54:00,
2013-01-01 03:04:00,46.8,38.5,30.24,North,-999,0.0,3.1,73,0.00,,,-99.99,FreeWX-Wi 1.01,2013-01-01 11:04:00,
2013-01-01 03:14:00,46.8,38.5,30.24,North,-999,0.0,0.0,73,0.00,,,-99.99,FreeWX-Wi 1.01,2013-01-01 11:14:00,
2013-01-01 03:24:00,46.6,38.5,30.24,North,-999,0.0,0.0,73,0.00,,,-99.99,FreeWX-Wi 1.01,2013-01-01 11:24:00,
2013-01-01 03:34:00,46.6,38.5,30.24,North,-999,0.0,0.0,73,0.00,,,-99.99,FreeWX-Wi 1.01,2013-01-01 11:34:00,
2013-01-01 03:44:00,46.6,38.5,30.24,North,-999,0.0,0.0,73,0.00,,,-99.99,FreeWX-Wi 1.01,2013-01-01 11:44:00,
2013-01-01 03:54:00,46.8,38.5,30.24,North,-999,0.0,0.0,73,0.00,,,-99.99,FreeWX-Wi 1.01,2013-01-01 11:54:00,
2013-01-01 04:04:00,46.8,38.5,30.24,North,-999,0.0,0.0,73,0.00,,,-99.99,FreeWX-Wi 1.01,2013-01-01 12:04:00,
2013-01-01 04:14:00,46.9,38.7,30.24,North,-999,0.0,0.0,73,0.00,,,-99.99,FreeWX-Wi 1.01,2013-01-01 12:14:00,
2013-01-01 04:24:00,46.9,38.7,30.24,North,-999,0.0,4.0,73,0.00,,,-99.99,FreeWX-Wi 1.01,2013-01-01 12:24:00,
2013-01-01 04:34:00,46.8,38.3,30.24,North,-999,0.0,0.0,72,0.00,,,-99.99,FreeWX-Wi 1.01,2013-01-01 12:34:00,
2013-01-01 04:44:00,46.6,37.8,30.24,North,-999,0.0,0.0,71,0.00,,,-99.99,FreeWX-Wi 1.01,2013-01-01 12:44:00,
2013-01-01 04:54:00,46.4,36.5,30.24,North,-999,0.0,5.4,68,0.00,,,-99.99,FreeWX-Wi 1.01,2013-01-01 12:54:00,
2013-01-01 05:04:00,46.6,37.0,30.24,ENE,74,1.0,5.8,69,0.00,,,-99.99,FreeWX-Wi 1.01,2013-01-01 13:04:00,
2013-01-01 05:14:00,46.6,37.0,30.24,ENE,71,1.0,4.0,69,0.00,,,-99.99,FreeWX-Wi 1.01,2013-01-01 13:14:00,
2013-01-01 05:24:00,46.6,37.4,30.24,ENE,74,1.0,4.0,70,0.00,,,-99.99,FreeWX-Wi 1.01,2013-01-01 13:24:00,
2013-01-01 05:34:00,46.4,37.2,30.24,North,-999,0.0,3.6,70,0.00,,,-99.99,FreeWX-Wi 1.01,2013-01-01 13:34:00,
2013-01-01 05:44:00,46.2,37.4,30.24,North,-999,0.0,0.0,71,0.00,,,-99.99,FreeWX-Wi 1.01,2013-01-01 13:44:00,
2013-01-01 05:54:00,46.2,37.8,30.24,North,-999,0.0,0.0,72,0.00,,,-99.99,FreeWX-Wi 1.01,2013-01-01 13:54:00,
2013-01-01 06:04:00,46.2,37.8,30.24,East,87,1.0,7.6,72,0.00,,,-99.99,FreeWX-Wi 1.01,2013-01-01 14:04:00,
2013-01-01 06:14:00,46.2,37.8,30.27,ESE,113,1.0,5.4,72,0.00,,,-99.99,FreeWX-Wi 1.01,2013-01-01 14:14:00,
2013-01-01 06:24:00,46.2,37.4,30.24,SE,132,2.0,3.6,71,0.00,,,-99.99,FreeWX-Wi 1.01,2013-01-01 14:24:00,
2013-01-01 06:34:00,46.0,36.9,30.24,North,-999,0.0,3.1,70,0.00,,,-99.99,FreeWX-Wi 1.01,2013-01-01 14:34:00,
2013-01-01 06:44:00,45.9,36.3,30.27,ESE,109,1.0,4.9,69,0.00,,,-99.99,FreeWX-Wi 1.01,2013-01-01 14:44:00,
2013-01-01 06:54:00,45.7,35.8,30.24,North,-999,0.0,4.0,68,0.00,,,-99.99,FreeWX-Wi 1.01,2013-01-01 14:54:00,
2013-01-01 07:04:00,45.3,34.7,30.24,East,100,1.0,4.9,66,0.00,,,-99.99,FreeWX-Wi 1.01,2013-01-01 15:04:00,
2013-01-01 07:14:00,45.3,34.3,30.27,ESE,118,1.0,4.0,65,0.00,,,-99.99,FreeWX-Wi 1.01,2013-01-01 15:14:00,
2013-01-01 07:24:00,45.3,34.3,30.27,SE,138,1.0,3.6,65,0.00,,,-99.99,FreeWX-Wi 1.01,2013-01-01 15:24:00,
2013-01-01 07:34:00,46.0,34.9,30.27,North,-999,0.0,6.3,65,0.00,,,-99.99,FreeWX-Wi 1.01,2013-01-01 15:34:00,
2013-01-01 07:44:00,45.3,32.7,30.24,ESE,105,1.0,7.6,61,0.00,,,-99.99,FreeWX-Wi 1.01,2013-01-01 15:44:00,
2013-01-01 07:54:00,45.0,32.0,30.24,East,83,2.0,6.3,60,0.00,,,-99.99,FreeWX-Wi 1.01,2013-01-01 15:54:00,
2013-01-01 08:04:00,44.6,30.7,30.24,East,79,4.0,8.1,58,0.00,,,-99.99,FreeWX-Wi 1.01,2013-01-01 16:04:00,
2013-01-01 08:14:00,44.6,31.1,30.27,East,85,4.0,7.6,59,0.00,,,-99.99,FreeWX-Wi 1.01,2013-01-01 16:14:00,
2013-01-01 08:24:00,44.6,31.1,30.27,East,81,4.0,6.3,59,0.00,,,-99.99,FreeWX-Wi 1.01,2013-01-01 16:24:00,
2013-01-01 08:34:00,44.8,31.3,30.27,ENE,77,4.0,8.7,59,0.00,,,-99.99,FreeWX-Wi 1.01,2013-01-01 16:34:00,
2013-01-01 08:44:00,45.0,31.5,30.27,ENE,74,5.0,7.6,59,0.00,,,-99.99,FreeWX-Wi 1.01,2013-01-01 16:44:00,
2013-01-01 08:54:00,45.1,31.6,30.27,East,79,4.0,8.1,59,0.00,,,-99.99,FreeWX-Wi 1.01,2013-01-01 16:54:00,
2013-01-01 09:04:00,45.3,31.8,30.27,East,86,4.0,6.3,59,0.00,,,-99.99,FreeWX-Wi 1.01,2013-01-01 17:04:00,
2013-01-01 09:14:00,45.3,31.5,30.27,East,92,3.0,5.8,58,0.00,,,-99.99,FreeWX-Wi 1.01,2013-01-01 17:14:00,
2013-01-01 09:24:00,46.0,32.2,30.27,East,89,3.0,5.8,58,0.00,,,-99.99,FreeWX-Wi 1.01,2013-01-01 17:24:00,
2013-01-01 09:34:00,46.4,31.6,30.27,East,81,4.0,7.6,56,0.00,,,-99.99,FreeWX-Wi 1.01,2013-01-01 17:34:00,
2013-01-01 09:44:00,46.8,31.5,30.27,ENE,78,4.0,8.7,55,0.00,,,-99.99,FreeWX-Wi 1.01,2013-01-01 17:44:00,
2013-01-01 09:54:00,46.9,31.6,30.27,ENE,74,4.0,5.8,55,0.00,,,-99.99,FreeWX-Wi 1.01,2013-01-01 17:54:00,
2013-01-01 10:04:00,48.2,36.1,30.27,East,89,3.0,7.2,63,0.00,,,-99.99,FreeWX-Wi 1.01,2013-01-01 18:04:00,
2013-01-01 10:14:00,49.3,37.6,30.27,ESE,111,3.0,6.7,64,0.00,,,-99.99,FreeWX-Wi 1.01,2013-01-01 18:14:00,
2013-01-01 10:24:00,50.0,41.4,30.27,SE,139,2.0,6.3,72,0.00,,,-99.99,FreeWX-Wi 1.01,2013-01-01 18:24:00,
2013-01-01 10:34:00,50.2,41.5,30.27,SE,142,3.0,6.3,72,0.00,,,-99.99,FreeWX-Wi 1.01,2013-01-01 18:34:00,
2013-01-01 10:44:00,50.5,41.9,30.27,SE,137,2.0,5.4,72,0.00,,,-99.99,FreeWX-Wi 1.01,2013-01-01 18:44:00,
2013-01-01 10:54:00,50.5,41.2,30.27,SE,135,3.0,7.6,70,0.00,,,-99.99,FreeWX-Wi 1.01,2013-01-01 18:54:00,
2013-01-01 11:04:00,50.5,37.9,30.27,SE,133,3.0,8.1,62,0.00,,,-99.99,FreeWX-Wi 1.01,2013-01-01 19:04:00,
2013-01-01 11:14:00,50.2,32.7,30.27,ESE,118,4.0,7.6,51,0.00,,,-99.99,FreeWX-Wi 1.01,2013-01-01 19:14:00,
2013-01-01 11:24:00,50.2,32.2,30.27,East,100,4.0,7.6,50,0.00,,,-99.99,FreeWX-Wi 1.01,2013-01-01 19:24:00,
2013-01-01 11:34:00,50.4,32.4,30.27,East,87,4.0,8.1,50,0.00,,,-99.99,FreeWX-Wi 1.01,2013-01-01 19:34:00,
2013-01-01 11:44:00,51.4,33.4,30.27,East,100,4.0,6.3,50,0.00,,,-99.99,FreeWX-Wi 1.01,2013-01-01 19:44:00,
2013-01-01 11:54:00,52.3,33.3,30.24,ESE,110,3.0,6.3,48,0.00,,,-99.99,FreeWX-Wi 1.01,2013-01-01 19:54:00,
2013-01-01 12:04:00,52.9,33.8,30.24,ESE,116,3.0,7.6,48,0.00,,,-99.99,FreeWX-Wi 1.01,2013-01-01 20:04:00,
2013-01-01 12:14:00,53.4,33.1,30.24,ESE,111,3.0,6.3,46,0.00,,,-99.99,FreeWX-Wi 1.01,2013-01-01 20:14:00,
2013-01-01 12:24:00,53.4,32.0,30.24,ESE,105,4.0,11.9,44,0.00,,,-99.99,FreeWX-Wi 1.01,2013-01-01 20:24:00,
2013-01-01 12:34:00,53.2,31.3,30.24,ESE,103,3.0,8.7,43,0.00,,,-99.99,FreeWX-Wi 1.01,2013-01-01 20:34:00,
2013-01-01 12:44:00,53.1,30.0,30.24,ESE,108,4.0,8.3,41,0.00,,,-99.99,FreeWX-Wi 1.01,2013-01-01 20:44:00,
2013-01-01 12:54:00,52.9,29.3,30.24,ESE,119,4.0,8.1,40,0.00,,,-99.99,FreeWX-Wi 1.01,2013-01-01 20:54:00,
2013-01-01 13:04:00,52.7,29.1,30.24,SE,127,4.0,8.7,40,0.00,,,-99.99,FreeWX-Wi 1.01,2013-01-01 21:04:00,
2013-01-01 13:14:00,52.5,28.9,30.24,ESE,120,4.0,11.0,40,0.00,,,-99.99,FreeWX-Wi 1.01,2013-01-01 21:14:00,
2013-01-01 13:24:00,52.3,28.8,30.24,ESE,106,4.0,11.0,40,0.00,,,-99.99,FreeWX-Wi 1.01,2013-01-01 21:24:00,
2013-01-01 13:34:00,52.3,29.3,30.24,East,90,4.0,8.1,41,0.00,,,-99.99,FreeWX-Wi 1.01,2013-01-01 21:34:00,
2013-01-01 13:44:00,52.3,29.3,30.24,East,92,4.0,10.5,41,0.00,,,-99.99,FreeWX-Wi 1.01,2013-01-01 21:44:00,
2013-01-01 13:54:00,52.3,28.8,30.24,ESE,109,4.0,8.7,40,0.00,,,-99.99,FreeWX-Wi 1.01,2013-01-01 21:54:00,
2013-01-01 14:04:00,52.2,28.6,30.24,ESE,123,4.0,7.6,40,0.00,,,-99.99,FreeWX-Wi 1.01,2013-01-01 22:04:00,
2013-01-01 14:14:00,52.2,28.6,30.24,ESE,121,3.0,6.7,40,0.00,,,-99.99,FreeWX-Wi 1.01,2013-01-01 22:14:00,
2013-01-01 14:24:00,52.2,28.6,30.24,ESE,120,3.0,8.1,40,0.00,,,-99.99,FreeWX-Wi 1.01,2013-01-01 22:24:00,
2013-01-01 14:34:00,52.0,28.4,30.24,ESE,108,3.0,7.6,40,0.00,,,-99.99,FreeWX-Wi 1.01,2013-01-01 22:34:00,
2013-01-01 14:44:00,52.0,28.4,30.24,ESE,119,4.0,8.7,40,0.00,,,-99.99,FreeWX-Wi 1.01,2013-01-01 22:44:00,
2013-01-01 14:54:00,52.2,28.0,30.24,ESE,118,4.0,8.7,39,0.00,,,-99.99,FreeWX-Wi 1.01,2013-01-01 22:54:00,
2013-01-01 15:04:00,52.2,27.3,30.24,SE,136,4.0,8.7,38,0.00,,,-99.99,FreeWX-Wi 1.01,2013-01-01 23:04:00,
2013-01-01 15:14:00,52.2,27.3,30.24,SE,132,4.0,7.2,38,0.00,,,-99.99,FreeWX-Wi 1.01,2013-01-01 23:14:00,
2013-01-01 15:24:00,52.2,27.3,30.24,SE,134,3.0,5.8,38,0.00,,,-99.99,FreeWX-Wi 1.01,2013-01-01 23:24:00,
2013-01-01 15:34:00,52.2,28.0,30.24,ESE,122,3.0,5.8,39,0.00,,,-99.99,FreeWX-Wi 1.01,2013-01-01 23:34:00,
2013-01-01 15:44:00,52.0,27.9,30.24,ESE,113,3.0,6.3,39,0.00,,,-99.99,FreeWX-Wi 1.01,2013-01-01 23:44:00,
2013-01-01 15:54:00,51.8,27.7,30.24,ESE,106,3.0,9.6,39,0.00,,,-99.99,FreeWX-Wi 1.01,2013-01-01 23:54:00,
2013-01-01 16:04:00,51.8,27.0,30.24,ESE,123,4.0,8.7,38,0.00,,,-99.99,FreeWX-Wi 1.01,2013-01-02 00:04:00,
2013-01-01 16:14:00,51.6,26.8,30.24,SE,125,4.0,8.3,38,0.00,,,-99.99,FreeWX-Wi 1.01,2013-01-02 00:14:00,
2013-01-01 16:24:00,51.4,26.1,30.24,SE,127,4.0,10.1,37,0.00,,,-99.99,FreeWX-Wi 1.01,2013-01-02 00:24:00,
2013-01-01 16:34:00,51.4,26.1,30.24,SE,126,4.0,7.6,37,0.00,,,-99.99,FreeWX-Wi 1.01,2013-01-02 00:34:00,
2013-01-01 16:44:00,51.3,25.9,30.24,SE,130,4.0,8.1,37,0.00,,,-99.99,FreeWX-Wi 1.01,2013-01-02 00:44:00,
2013-01-01 16:54:00,51.1,26.4,30.21,SE,133,4.0,7.6,38,0.00,,,-99.99,FreeWX-Wi 1.01,2013-01-02 00:54:00,
2013-01-01 17:04:00,51.1,26.4,30.21,SE,133,3.0,5.8,38,0.00,,,-99.99,FreeWX-Wi 1.01,2013-01-02 01:04:00,
2013-01-01 17:14:00,50.9,26.2,30.21,SE,127,2.0,5.8,38,0.00,,,-99.99,FreeWX-Wi 1.01,2013-01-02 01:14:00,
2013-01-01 17:24:00,50.7,26.1,30.21,SE,130,3.0,7.6,38,0.00,,,-99.99,FreeWX-Wi 1.01,2013-01-02 01:24:00,
2013-01-01 17:34:00,50.7,25.3,30.21,SE,127,3.0,7.6,37,0.00,,,-99.99,FreeWX-Wi 1.01,2013-01-02 01:34:00,
2013-01-01 17:44:00,50.4,25.7,30.21,SE,129,3.0,8.1,38,0.00,,,-99.99,FreeWX-Wi 1.01,2013-01-02 01:44:00,
2013-01-01 17:54:00,50.2,25.5,30.21,SE,132,2.0,4.5,38,0.00,,,-99.99,FreeWX-Wi 1.01,2013-01-02 01:54:00,
2013-01-01 18:04:00,50.0,25.3,30.21,SE,132,1.0,5.8,38,0.00,,,-99.99,FreeWX-Wi 1.01,2013-01-02 02:04:00,
2013-01-01 18:14:00,49.8,25.9,30.21,SE,126,1.0,4.9,39,0.00,,,-99.99,FreeWX-Wi 1.01,2013-01-02 02:14:00,
2013-01-01 18:24:00,49.8,26.4,30.21,ESE,120,1.0,6.3,40,0.00,,,-99.99,FreeWX-Wi 1.01,2013-01-02 02:24:00,
2013-01-01 18:34:00,49.6,26.2,30.21,ESE,120,1.0,4.9,40,0.00,,,-99.99,FreeWX-Wi 1.01,2013-01-02 02:34:00,
2013-01-01 18:44:00,49.5,26.8,30.21,SE,127,2.0,6.3,41,0.00,,,-99.99,FreeWX-Wi 1.01,2013-01-02 02:44:00,
2013-01-01 18:54:00,49.5,26.2,30.24,SE,132,2.0,4.0,40,0.00,,,-99.99,FreeWX-Wi 1.01,2013-01-02 02:54:00,
2013-01-01 19:04:00,49.3,26.6,30.24,SSE,147,1.0,4.0,41,0.00,,,-99.99,FreeWX-Wi 1.01,2013-01-02 03:04:00,
2013-01-01 19:14:00,48.9,26.8,30.24,North,-999,0.0,0.0,42,0.00,,,-99.99,FreeWX-Wi 1.01,2013-01-02 03:14:00,
2013-01-01 19:24:00,48.7,27.3,30.24,North,-999,0.0,0.0,43,0.00,,,-99.99,FreeWX-Wi 1.01,2013-01-02 03:24:00,
2013-01-01 19:34:00,48.7,28.4,30.24,North,-999,0.0,0.0,45,0.00,,,-99.99,FreeWX-Wi 1.01,2013-01-02 03:34:00,
2013-01-01 19:44:00,48.6,29.3,30.24,North,-999,0.0,0.0,47,0.00,,,-99.99,FreeWX-Wi 1.01,2013-01-02 03:44:00,
2013-01-01 19:54:00,48.2,29.5,30.24,North,-999,0.0,0.0,48,0.00,,,-99.99,FreeWX-Wi 1.01,2013-01-02 03:54:00,
2013-01-01 20:04:00,48.0,29.8,30.24,North,-999,0.0,0.0,49,0.00,,,-99.99,FreeWX-Wi 1.01,2013-01-02 04:04:00,
2013-01-01 20:14:00,47.8,29.7,30.24,North,-999,0.0,0.0,49,0.00,,,-99.99,FreeWX-Wi 1.01,2013-01-02 04:14:00,
2013-01-01 20:24:00,47.8,29.7,30.24,North,-999,0.0,0.0,49,0.00,,,-99.99,FreeWX-Wi 1.01,2013-01-02 04:24:00,
2013-01-01 20:34:00,47.7,30.0,30.24,North,-999,0.0,3.6,50,0.00,,,-99.99,FreeWX-Wi 1.01,2013-01-02 04:34:00,
2013-01-01 20:44:00,47.5,30.2,30.24,North,-999,0.0,0.0,51,0.00,,,-99.99,FreeWX-Wi 1.01,2013-01-02 04:44:00,
2013-01-01 20:54:00,47.3,30.6,30.24,North,-999,0.0,2.7,52,0.00,,,-99.99,FreeWX-Wi 1.01,2013-01-02 04:54:00,
2013-01-01 21:04:00,47.1,30.4,30.24,North,-999,0.0,0.0,52,0.00,,,-99.99,FreeWX-Wi 1.01,2013-01-02 05:04:00,
2013-01-01 21:14:00,47.1,30.4,30.24,North,-999,0.0,3.1,52,0.00,,,-99.99,FreeWX-Wi 1.01,2013-01-02 05:14:00,
2013-01-01 21:24:00,46.9,30.2,30.24,North,-999,0.0,0.0,52,0.00,,,-99.99,FreeWX-Wi 1.01,2013-01-02 05:24:00,
2013-01-01 21:34:00,46.9,30.7,30.24,North,-999,0.0,0.0,53,0.00,,,-99.99,FreeWX-Wi 1.01,2013-01-02 05:34:00,
2013-01-01 21:44:00,46.9,30.7,30.24,North,-999,0.0,0.0,53,0.00,,,-99.99,FreeWX-Wi 1.01,2013-01-02 05:44:00,
2013-01-01 21:54:00,46.8,30.9,30.24,North,-999,0.0,0.0,54,0.00,,,-99.99,FreeWX-Wi 1.01,2013-01-02 05:54:00,
2013-01-01 22:04:00,46.6,30.9,30.24,North,-999,0.0,0.0,54,0.00,,,-99.99,FreeWX-Wi 1.01,2013-01-02 06:04:00,
2013-01-01 22:14:00,46.6,31.3,30.24,North,-999,0.0,0.0,55,0.00,,,-99.99,FreeWX-Wi 1.01,2013-01-02 06:14:00,
2013-01-01 22:24:00,46.6,31.8,30.27,North,-999,0.0,0.0,56,0.00,,,-99.99,FreeWX-Wi 1.01,2013-01-02 06:24:00,
2013-01-01 22:34:00,46.4,32.0,30.27,North,-999,0.0,0.0,57,0.00,,,-99.99,FreeWX-Wi 1.01,2013-01-02 06:34:00,
2013-01-01 22:44:00,46.4,32.4,30.24,North,-999,0.0,2.7,58,0.00,,,-99.99,FreeWX-Wi 1.01,2013-01-02 06:44:00,
2013-01-01 22:54:00,46.4,32.9,30.24,North,-999,0.0,0.0,59,0.00,,,-99.99,FreeWX-Wi 1.01,2013-01-02 06:54:00,
2013-01-01 23:04:00,46.2,33.1,30.24,North,-999,0.0,0.0,60,0.00,,,-99.99,FreeWX-Wi 1.01,2013-01-02 07:04:00,
2013-01-01 23:14:00,46.0,32.9,30.24,North,-999,0.0,2.7,60,0.00,,,-99.99,FreeWX-Wi 1.01,2013-01-02 07:14:00,
2013-01-01 23:24:00,45.9,32.7,30.24,North,-999,0.0,3.1,60,0.00,,,-99.99,FreeWX-Wi 1.01,2013-01-02 07:24:00,
2013-01-01 23:34:00,45.9,33.3,30.24,North,-999,0.0,0.0,61,0.00,,,-99.99,FreeWX-Wi 1.01,2013-01-02 07:34:00,
2013-01-01 23:44:00,45.7,33.1,30.24,North,-999,0.0,0.0,61,0.00,,,-99.99,FreeWX-Wi 1.01,2013-01-02 07:44:00,
2013-01-01 23:54:00,45.5,32.9,30.24,North,-999,0.0,0.0,61,0.00,,,-99.99,FreeWX-Wi 1.01,2013-01-02 07:54:00,